| time (UTC) | temp C | wind direction | speed KPH | gust KPH | rain 1hr cm | rain 24hr cm | rain mn cm | humidity % | barometer mb |
| 20260505040958 | 28 | 0 | 0.0 | 0.0 | 0.00 | 0.00 | 0.00 | 89 | 984.8 |
| 20260505035958 | 28 | 0 | 0.0 | 0.0 | 0.00 | 0.00 | 0.00 | 89 | 984.7 |
| 20260505034958 | 28 | 0 | 0.0 | 0.0 | 0.00 | 0.00 | 0.00 | 89 | 984.6 |
| 20260505033958 | 28 | 0 | 0.0 | 0.0 | 0.00 | 0.00 | 0.00 | 89 | 984.8 |
| 20260505032958 | 28 | 0 | 0.0 | 0.0 | 0.00 | 0.00 | 0.00 | 89 | 984.8 |
| 20260505031958 | 28 | 0 | 0.0 | 0.0 | 0.00 | 0.00 | 0.00 | 87 | 984.7 |
| 20260505030958 | 28 | 0 | 0.0 | 0.0 | 0.00 | 0.00 | 0.00 | 87 | 984.8 |
| 20260505025958 | 28 | 0 | 0.0 | 0.0 | 0.00 | 0.00 | 0.00 | 87 | 985.1 |
| 20260505024958 | 28 | 0 | 0.0 | 0.0 | 0.00 | 0.00 | 0.00 | 87 | 985.3 |
| 20260505023958 | 28 | 0 | 0.0 | 0.0 | 0.00 | 0.00 | 0.00 | 87 | 985.0 |
| 20260505022957 | 28 | 0 | 0.0 | 0.0 | 0.00 | 0.00 | 0.00 | 87 | 985.1 |
| 20260505021956 | 28 | 0 | 0.0 | 0.0 | 0.00 | 0.00 | 0.00 | 87 | 985.1 |
| 20260505020957 | 28 | 0 | 0.0 | 0.0 | 0.00 | 0.00 | 0.00 | 86 | 985.2 |
| 20260505015957 | 28 | 0 | 0.0 | 0.0 | 0.00 | 0.00 | 0.00 | 86 | 985.1 |
| 20260505014957 | 28 | 0 | 0.0 | 0.0 | 0.00 | 0.00 | 0.00 | 86 | 984.8 |
| 20260505013958 | 28 | 0 | 0.0 | 0.0 | 0.00 | 0.00 | 0.00 | 85 | 985.1 |
| 20260505012958 | 28 | 0 | 0.0 | 0.0 | 0.00 | 0.00 | 0.00 | 85 | 985.2 |
| 20260505011958 | 28 | 0 | 0.0 | 0.0 | 0.00 | 0.00 | 0.00 | 85 | 985.2 |
| 20260505010958 | 28 | 0 | 0.0 | 0.0 | 0.00 | 0.00 | 0.00 | 84 | 985.1 |
| 20260505005958 | 28 | 0 | 0.0 | 0.0 | 0.00 | 0.00 | 0.00 | 84 | 985.0 |
| 20260505004958 | 28 | 0 | 0.0 | 0.0 | 0.00 | 0.00 | 0.00 | 84 | 984.9 |
| 20260505003958 | 28 | 0 | 0.0 | 0.0 | 0.00 | 0.00 | 0.00 | 84 | 984.9 |
| 20260505002958 | 28 | 0 | 0.0 | 0.0 | 0.00 | 0.00 | 0.00 | 83 | 984.8 |
| 20260505001958 | 28 | 0 | 0.0 | 0.0 | 0.00 | 0.00 | 0.00 | 83 | 984.8 |
| 20260505000957 | 28 | 0 | 0.0 | 0.0 | 0.00 | 0.00 | 0.00 | 84 | 984.8 |
| 20260504235957 | 28 | 0 | 0.0 | 0.0 | 0.00 | 0.00 | 0.00 | 84 | 984.7 |
| 20260504234957 | 28 | 0 | 0.0 | 0.0 | 0.00 | 0.00 | 0.00 | 85 | 984.6 |
| 20260504233957 | 28 | 0 | 0.0 | 0.0 | 0.00 | 0.00 | 0.00 | 85 | 984.7 |
| 20260504232957 | 28 | 0 | 0.0 | 0.0 | 0.00 | 0.00 | 0.00 | 85 | 984.5 |
| 20260504231957 | 28 | 0 | 0.0 | 0.0 | 0.00 | 0.00 | 0.00 | 85 | 984.5 |
| 20260504230957 | 28 | 0 | 0.0 | 0.0 | 0.00 | 0.00 | 0.00 | 86 | 984.5 |
| 20260504225957 | 28 | 0 | 0.0 | 0.0 | 0.00 | 0.00 | 0.00 | 86 | 984.2 |
| 20260504224957 | 28 | 0 | 0.0 | 0.0 | 0.00 | 0.00 | 0.00 | 86 | 984.2 |
| 20260504223957 | 28 | 0 | 0.0 | 0.0 | 0.00 | 0.00 | 0.00 | 89 | 984.1 |
| 20260504100321 | 32 | 0 | 0.0 | 0.0 | 0.00 | 0.00 | 0.00 | 40 | 981.0 |
| 20260504081619 | 32 | 0 | 0.0 | 0.0 | 0.00 | 0.00 | 0.00 | 38 | 979.6 |
| 20260504081117 | 32 | 0 | 0.0 | 0.0 | 0.00 | 0.00 | 0.00 | 38 | 979.6 |
| 20260504080619 | 32 | 0 | 0.0 | 0.0 | 0.00 | 0.00 | 0.00 | 38 | 979.6 |
| 20260504050618 | 33 | 0 | 0.0 | 0.0 | 0.00 | 0.00 | 0.00 | 36 | 980.1 |